Regional Weather Roundup
Issued by NWS

Home | Current Version | Previous Version | Text Only | Print | Product List | Glossary Off
Versions: 1 2 3 4 5 6 7 8 9 10 11 12 13 14 15 16 17 18 19 20 21 22 23 24 25 26 27 28 29 30 31 32 33 34 35 36 37 38 39 40 41 42 43 44 45 46 47 48 49 50

000
ASUS43 KLOT 251200
RWRIL

ILLINOIS REGIONAL WEATHER ROUNDUP
NATIONAL WEATHER SERVICE CHICAGO/ROMEOVILLE IL
600 AM CST SUN JAN 25 2015

NOTE: "FAIR" INDICATES FEW OR NO CLOUDS BELOW 12,000 FEET WITH NO
SIGNIFICANT WEATHER AND/OR OBSTRUCTIONS TO VISIBILITY.

* THESE STATIONS ARE NOT UNDER NWS QUALITY CONTROL. THEY ALSO MAY NOT
  REPORT WEATHER SUCH AS PRECIPITATION OR FOG.

ILZ001-002-007-009-015-016-024-251300-
NORTHWEST ILLINOIS

CITY           SKY/WX    TMP DP  RH WIND       PRES   REMARKS
MOLINE         LGT RAIN  35  32  88 NE15      29.62R FOG     WCI  25
6HR MIN TEMP:  31; 6HR MAX TEMP:  35; 6HR PCP:  0.03;

STERLING*      CLOUDY    34  30  86 E18       29.67R WCI  23
$$

ILZ003-004-008-010-011-017-018-251300-
NORTH CENTRAL ILLINOIS

CITY           SKY/WX    TMP DP  RH WIND       PRES   REMARKS
ROCKFORD       CLOUDY    31  25  78 NE15G28   29.73R WCI  20
6HR MIN TEMP:  31; 6HR MAX TEMP:  34;

$$

ILZ005-006-012>014-019>023-251300-
NORTHEAST ILLINOIS

CITY           SKY/WX    TMP DP  RH WIND       PRES   REMARKS
CHICAGO-OHARE  CLOUDY    33  31  92 NE20G29   29.70S WCI  21
6HR MIN TEMP:  31; 6HR MAX TEMP:  34;

CHICAGO-MIDWAY CLOUDY    37  34  89 NE9       29.70S WCI  30
6HR MIN TEMP:  34; 6HR MAX TEMP:  37;

AURORA         CLOUDY    34  31  88 NE21G29   29.68R WCI  22
6HR MIN TEMP:  33; 6HR MAX TEMP:  34;

WAUKEGAN       LGT SNOW  29  27  92 N13G26    29.75R FOG     WCI  19
6HR MIN TEMP:  27; 6HR MAX TEMP:  33; 6HR PCP: TRACE;

DUPAGE AIRPORT CLOUDY    33  31  92 NE18      29.69R FOG     WCI  22
6HR MIN TEMP:  31; 6HR MAX TEMP:  34;

WHEELING       CLOUDY    33  30  88 NE13G24   29.74R WCI  24
6HR MIN TEMP:  31; 6HR MAX TEMP:  34;

NORTHERLY ISL    N/A     34  32  92 MISG        N/A
$$

LMZ740>746-251300-
SOUTHERN LAKE MICHIGAN

STATION/POSITION SKY/WX   TEMP    WIND        PRES    VSBY  WAVE
                          AIR SEA DIR/SP/G                  HT/PER
                          (F)     (DEG/KT/KT) (MB)    (MI)  (FT/S)
WAUKEGAN HARBOR            31      20/ 24/ 29   N/A
HARRISON CRIB              33     350/  8/  9   N/A
BURNHAM HARBOR             34      10/  8/  9   N/A
CALUMET HARBOR             33      10/  7/  8   N/A
MICHIGAN CITY              34      50/  5/  6   N/A
$$

ILZ025>027-034>036-040-047-049-050-058-095>099-251300-
WEST-CENTRAL ILLINOIS

CITY           SKY/WX    TMP DP  RH WIND       PRES   REMARKS
QUINCY         LGT RAIN  40  36  86 CALM      29.57R
$$

ILZ028>032-037-038-041>044-048-051>054-059>061-251300-
CENTRAL ILLINOIS

CITY           SKY/WX    TMP DP  RH WIND       PRES   REMARKS
DECATUR        CLOUDY    40  33  76 SW7       29.60S
PEORIA         LGT RAIN  37  34  89 E7        29.60R FOG     WCI  32
6HR MIN TEMP:  36; 6HR MAX TEMP:  40; 6HR PCP:  0.02;

SPRINGFIELD    LGT RAIN  40  35  83 CALM      29.60R
6HR MIN TEMP:  40; 6HR MAX TEMP:  44; 6HR PCP:  0.02;

TAYLORVILLE    NOT AVBL
$$

ILZ033-039-045-046-055>057-062-063-251300-
EAST-CENTRAL ILLINOIS

CITY           SKY/WX    TMP DP  RH WIND       PRES   REMARKS
CHAMPAIGN      CLOUDY    34  32  92 E5        29.61R WCI  30
MATTOON        CLOUDY    38  31  76 S7        29.60S WCI  33
$$

ILZ079-100>102-251300-
SOUTHWEST ILLINOIS

CITY           SKY/WX    TMP DP  RH WIND       PRES   REMARKS
BELLEVILLE     LGT RAIN  41  41  99 S5        29.61S
CAHOKIA*       CLOUDY    43  41  93 S3        29.60F
$$

ILZ064>066-069>071-074>076-080>082-084>086-088>090-092>094-251300-
SOUTH-CENTRAL ILLINOIS

CITY           SKY/WX    TMP DP  RH WIND       PRES   REMARKS
CARBONDALE     LGT RAIN  43  32  65 S14       29.66S
6HR MIN TEMP:  40; 6HR MAX TEMP:  46; 6HR PCP: TRACE;

MT. VERNON     CLOUDY    39  32  75 S6        29.64F WCI  35
$$

ILZ067-068-072-073-078-083-087-091-251300-
SOUTHEAST ILLINOIS

CITY           SKY/WX    TMP DP  RH WIND       PRES   REMARKS
LAWRENCEVILLE  CLOUDY    39  34  82 S10       29.65F WCI  32
$$

ABBREVIATIONS USED IN REMARKS
   TC - TEMPERATURE IN CELSIUS
  WCI - WIND CHILL INDEX
   HX - HEAT INDEX
  VSB - VISIBILITY
$$



USA.gov is the U.S. government's official web portal to all federal, state and local government web resources and services.